Regional Weather Roundup
Issued by NWS Cleveland, OH

Home | Current Version | Previous Version | Text Only | Print | Product List | Glossary Off
Versions: 1 2 3 4 5 6 7 8 9 10 11 12 13 14 15 16 17 18 19 20 21 22 23 24 25 26 27 28 29 30 31 32 33 34 35 36 37 38 39 40 41 42 43 44 45 46 47 48 49 50

630
ASUS41 KCLE 281702
RWRCLE
OHIO REGIONAL WEATHER ROUNDUP
NATIONAL WEATHER SERVICE CLEVELAND, OH
100 PM EDT TUE MAR 28 2017

NOTE: "FAIR" INDICATES FEW OR NO CLOUDS BELOW 12,000 FEET WITH NO
SIGNIFICANT WEATHER AND/OR OBSTRUCTIONS TO VISIBILITY.

OHZ001>008-015>018-024>027-034-035-043-044-281800-
   NORTHWEST OHIO

CITY           SKY/WX    TMP DP  RH WIND       PRES   REMARKS
DEFIANCE       CLOUDY    46  43  89 NE9       30.06R FOG
FINDLAY        CLOUDY    49  40  71 NE12      30.03S
TOLEDO EXPRESS CLOUDY    48  41  76 N9        30.04S
TOLEDO EXEC    CLOUDY    49  41  74 N5        30.06R
LIMA             N/A     48  45  89 MISG      30.03S
$$

OHZ009>014-019>023-028>033-038-089-281800-
   NORTHEAST OHIO

CITY           SKY/WX    TMP DP  RH WIND       PRES   REMARKS
CLE-HOPKINS    CLOUDY    43  38  82 N10       30.05R
CLE-LAKEFRONT  CLOUDY    40  37  89 CALM      30.02R
CUY CO. ARPT   NOT AVBL
LORAIN-ELYRIA  CLOUDY    41  37  86 N14       30.03R
ASHTABULA      CLOUDY    45  43  93 N8        29.98R FOG
AKRON-CANTON   CLOUDY    51  47  86 N13       29.96R FOG
WOOSTER        CLOUDY    46  44  93 N17       29.99R FOG
MANSFIELD      FOG       44  43  96 N13       30.00R VSB 1/4
YOUNGSTOWN     LGT RAIN  49  46  90 NW17      29.95R FOG
$$

OHZ042-051>053-060>062-070>072-077>081-281800-
  SOUTHWEST OHIO

CITY           SKY/WX    TMP DP  RH WIND       PRES   REMARKS
CINC-COVINGTON CLOUDY    61  54  77 N13       29.99R
CINC-LUNKEN    CLOUDY    62  55  77 N9        29.99R
HAMILTON       CLOUDY    57  53  86 N8        30.02R
DAYTON         CLOUDY    52  49  89 N10       30.02R
WRIGHT-PAT AFB NOT AVBL
DAYTON GENERAL CLOUDY    55  51  86 N10       30.00R
WILMINGTON     CLOUDY    57  53  86 N10       29.97S
$$

OHZ036-037-039>041-045>050-054>059-063>069-073>076-082>088-281800-
  CENTRAL AND SOUTHEAST OHIO

CITY           SKY/WX    TMP DP  RH WIND       PRES   REMARKS
COLUMBUS       CLOUDY    55  50  83 NW13      29.98R
OSU AIRPORT    CLOUDY    52  48  86 N15       29.99R
BOLTON FIELD   CLOUDY    55  50  82 N14       29.99R
RICKENBACK AFB CLOUDY    56  52  88 N13       29.97R
NEWARK         CLOUDY    56  50  80 N10       29.96R
MARION         CLOUDY    47  44  90 N14       30.02S
LANCASTER      CLOUDY    61  53  75 N7        29.96R
ZANESVILLE     CLOUDY    58  52  80 VRB5      29.93S
NEW PHILLY     NOT AVBL
$$




USA.gov is the U.S. government's official web portal to all federal, state and local government web resources and services.